Jilin-1 GaoFen 03D 27 xing

operational
NORAD ID: 52444 Int'l Des: 2022-048 Owner: CGSTL Country: CN Constellation: jilin-1
LEOCIRCULARRETROGRADE

关于 Jilin-1 GaoFen 03D 27 xing

正在加载描述...

实时位置

正在加载3D地球...

即将过境

高度历史

Altitude vs Time

uPlot chart will show altitude changes over time

两行轨道根数

1 52444U 22048B 26062.13190069 .00074379 00000-0 10001-2 0 9994
2 52444 97.5642 168.1451 0004978 82.7953 277.3867 15.57629536212882
Epoch: Mar 3, 2026 • Age: 24 hours

当前状态

高度 400.8 km
速度 7.68 km/s
星下点 54.62°N, 158.11°W
发射日期 May 5, 2022
运行时间 3.8 years
类型 earth observation

技术详情

分类 Payload
质量 42.00 kg
干质量 42.00 kg
总质量 42.00 kg
长度 1.50 m
直径 1.00 m
跨度 1.50 m
形状 Box
制造商 CGSTL
平台类型 JL-1
阶段状态 In Orbit
所有者/国家 CGSTL/CN

大型星座

Loading constellations...